[[{"header":{"parameterUnit":"m.s-1","parameterCategory":1,"la1":30.2991,"la2":30.254,"lo1":-89.0895,"lo2":-89.0444,"dy":0.0017,"dx":0.0017,"nx":28,"ny":28,"refTime":"2024-04-05T03:00:00:Z","depth":0,"parameterNumber":2,"parameterNumberName":"U-component_of_WINDS"},"data":[0,0,0,0,0,0,0,0,0,0,0,0,0,0,0,0,0,0,0,0,0,0,0,0,0,0,0,0,0,0,0,0,0,0,0,0,0,0,0,0,0,0,0,0,0,0,0,0,0,0,0,0,0,0,0,0,0,0,-5.0238,-5.0238,0,-5.025,-5.025,-5.025,-5.0144,-5.0141,-5.0138,-5.0135,-5.0147,-5.015,-5.0153,0,0,0,0,0,0,0,0,0,0,0,0,0,-5.0126,-5.0129,-5.0238,-5.0238,-5.0239,-5.025,-5.025,-5.025,-5.0144,-5.0141,-5.0137,-5.0134,-5.0146,-5.015,-5.0153,0,0,0,0,0,0,0,0,0,0,0,0,0,-5.016,-5.013,-5.0238,-5.0187,-5.0183,-5.025,-5.025,-5.025,-5.0145,-5.014,-5.0136,-5.0132,-5.0145,-5.0149,-5.0154,-5.0271,0,0,-5.0168,-5.017,0,0,0,0,0,0,0,0,-5.0158,-5.0164,-5.0194,-5.0191,-5.0186,-5.0191,-5.0214,-5.0257,-5.0146,-5.0159,-5.0135,-5.013,-5.0165,-5.0168,-5.018,-5.0271,-5.0272,-5.0168,-5.0171,-5.0173,-5.0174,0,0,0,0,0,0,0,-5.0156,-5.0163,-5.0243,-5.0195,-5.019,-5.0164,-5.0164,-5.0222,-5.0187,-5.0158,-5.015,-5.0153,-5.0162,-5.0176,-5.0179,-5.0272,-5.0168,-5.0172,-5.0175,-5.0177,-5.0461,-5.0465,0,0,0,0,0,0,-5.0161,-5.0162,-5.0242,-5.0243,-5.0161,-5.017,-5.0169,-5.0194,-5.0186,-5.018,-5.0157,-5.0148,-5.017,-5.0174,-5.0179,-5.0316,-5.0173,-5.0177,-5.018,-5.0456,-5.0462,-5.0467,0,0,0,0,0,0,-5.0159,-5.0169,-5.0242,-5.02,-5.0208,-5.0176,-5.0204,-5.0196,-5.0209,-5.0185,-5.0178,-5.0177,-5.0166,-5.0173,-5.0249,-5.0314,-5.0179,-5.0184,-5.045,-5.0458,-5.0464,-5.0589,0,0,0,0,0,0,-5.0156,-5.0169,-5.0212,-5.0202,-5.021,-5.0311,-5.0208,-5.02,-5.0218,-5.0206,-5.0202,-5.0197,-5.0163,-5.0243,-5.0253,-5.0318,-5.0187,-5.0444,-5.0453,-5.0462,-5.0579,-5.06,-5.0618,0,0,0,0,0,-5.0152,-5.0247,-5.0215,-5.0225,-5.0264,-5.0315,-5.032,-5.0279,-5.0223,-5.0267,-5.0252,-5.0197,-5.0306,-5.0251,-5.0262,-5.033,-5.044,-5.0451,-5.0461,-5.0571,-5.0596,-5.0617,0,0,0,0,0,0,-5.0265,-5.0245,-5.0209,-5.0303,-5.0312,-5.0297,-5.0351,-5.0307,-5.0331,-5.032,-5.0268,-5.0268,-5.0353,-5.0349,-5.0289,-5.0443,-5.0363,-5.0377,-5.0442,-5.0466,-5.0485,-5.0484,-5.0191,0,0,0,0,0,-5.0301,-5.0344,-5.0324,-5.0409,-5.0415,-5.0383,-5.0403,-5.0371,-5.0378,-5.0381,-5.0371,-5.038,-5.0416,-5.0441,-5.0473,-5.0578,-5.0576,-5.0631,-5.065,-5.0666,-5.0678,-5.0734,-5.0758,-5.0502,-5.0502,-5.0502,0,0,-5.0376,-5.037,-5.04,-5.0432,-5.0434,-5.048,-5.0386,-5.0439,-5.0472,-5.0389,-5.046,-5.0454,-5.046,-5.0552,-5.0592,-5.0551,-5.0748,-5.0679,-5.0692,-5.0696,-5.0748,-5.0772,-5.0794,-5.0509,-5.0508,-5.0507,0,0,-5.0535,-5.0535,-5.0606,-5.0611,-5.0617,-5.0595,-5.0612,-5.0605,-5.0597,-5.0668,-5.0607,-5.0646,-5.0709,-5.0717,-5.0729,-5.0893,-5.0845,-5.0905,-5.1005,-5.1061,-5.1081,-5.1099,-5.1158,-5.118,-5.0918,-5.0918,-5.0918,0,-5.0627,-5.0693,-5.0648,-5.0705,-5.0721,-5.0648,-5.072,-5.0728,-5.0744,-5.0757,-5.0711,-5.0789,-5.0789,-5.0882,-5.0922,-5.0934,-5.0953,-5.0905,-5.1082,-5.1099,-5.1115,-5.1171,-5.1193,-5.0925,-5.0924,-5.0924,-5.0923,0,-5.0806,-5.0853,-5.091,-5.0928,-5.095,-5.1015,-5.098,-5.1009,-5.0975,-5.0959,-5.1032,-5.1029,-5.1059,-5.1079,-5.1047,-5.1168,-5.1143,-5.1091,-5.1009,-5.1148,-5.1199,-5.122,-5.0936,-5.0933,-5.0931,-5.0929,0,0,-5.1035,-5.1028,-5.105,-5.1058,-5.1059,-5.1095,-5.1157,-5.1187,-5.1212,-5.1226,-5.1277,-5.1333,-5.1285,-5.1299,-5.1267,-5.1316,-5.1447,-5.1258,-5.1257,-5.1293,-5.1581,-5.162,-5.1646,-5.1415,-5.1419,-5.1422,-5.1581,0,-5.1191,-5.1295,-5.1257,-5.1364,-5.1407,-5.134,-5.1394,-5.1401,-5.1388,-5.1423,-5.1408,-5.1449,-5.1382,-5.139,-5.1436,-5.1422,-5.1504,-5.141,-5.1462,-5.1465,-5.1462,-5.1672,-5.1714,-5.1863,-5.1601,-5.1604,-5.1606,0,-5.1385,-5.1407,-5.1519,-5.1514,-5.1531,-5.158,-5.1605,-5.1639,-5.1647,-5.1634,-5.1651,-5.1609,-5.1669,-5.1589,-5.1673,-5.1609,-5.1629,-5.1625,-5.163,-5.1633,-5.1544,-5.1681,-5.191,-5.1932,-5.1637,-5.1635,-5.1633,0,-5.1541,-5.1599,-5.1674,-5.1682,-5.1679,-5.1715,-5.1715,-5.1718,-5.1739,-5.1761,-5.1774,-5.1803,-5.1819,-5.1843,-5.1811,-5.1755,-5.1899,-5.1816,-5.189,-5.1891,-5.1923,-5.1921,-5.2158,-5.1937,-5.1936,-5.1936,-5.1935,0,-5.1718,-5.1789,-5.1744,-5.179,-5.1868,-5.1824,-5.1902,-5.1895,-5.1899,-5.1942,-5.1886,-5.1928,-5.1883,-5.1921,-5.1896,-5.197,-5.1977,-5.1969,-5.1961,-5.1974,-5.1975,-5.1985,-5.1974,-5.1942,-5.1941,-5.1939,-5.1938,0,-5.1905,-5.1878,-5.1954,-5.1945,-5.1945,-5.2003,-5.1995,-5.2037,-5.202,-5.2076,-5.2087,-5.2061,-5.2103,-5.2073,-5.2116,-5.2099,-5.2195,-5.2173,-5.2193,-5.2187,-5.2263,-5.2256,-5.2514,-5.2546,-5.2305,-5.2307,-5.2309,0,-5.202,-5.2073,-5.207,-5.2095,-5.2099,-5.214,-5.2161,-5.2121,-5.2145,-5.2159,-5.22,-5.2238,-5.2265,-5.2337,-5.2322,-5.2354,-5.2332,-5.2421,-5.2337,-5.2348,-5.2334,-5.2331,-5.2336,-5.2437,-5.244,-5.2442,-5.2444,0,-5.2226,-5.221,-5.2242,-5.2271,-5.2298,-5.2318,-5.2334,-5.2358,-5.2318,-5.2348,-5.2391,-5.2413,-5.2456,-5.2495,-5.2522,-5.2522,-5.2477,-5.2471,-5.249,-5.2503,-5.2512,-5.2508,-5.2239,-5.2465,-5.2463,-5.2461,-5.246,-5.246,-5.2379,-5.2424,-5.2429,-5.2467,-5.2475,-5.2492,-5.2532,-5.252,-5.2555,-5.2587,-5.2562,-5.2613,-5.262,-5.2652,-5.2659,-5.2699,-5.2663,-5.269,-5.2697,-5.2704,-5.2715,-5.2506,-5.2704,-5.2703,-5.2702,-5.2702,-5.2701,0,-5.2582,-5.2583,-5.2619,-5.2643,-5.2674,-5.2629,-5.2645,-5.2674,-5.2719,-5.273,-5.2759,-5.2809,-5.2846,-5.2835,-5.2869,-5.2903,-5.2883,-5.2913,-5.291,-5.2911,-5.2745,-5.2726,-5.2929,-5.2929,-5.2928,-5.2928,-5.2928,-5.2928,-5.2691,-5.2764,-5.275,-5.2826,-5.2826,-5.2876,-5.2889,-5.2904,-5.2913,-5.2971,-5.3002,-5.2994,-5.2997,-5.303,-5.3063,-5.3058,-5.3073,-5.3111,-5.31,-5.2945,-5.2922,-5.2901,-5.2882,-5.3115,-5.3115,-5.3261,-5.3263,-5.3264]},{"header":{"parameterUnit":"m.s-1","parameterCategory":1,"la1":30.2991,"la2":30.254,"lo1":-89.0895,"lo2":-89.0444,"dy":0.0017,"dx":0.0017,"nx":28,"ny":28,"refTime":"2024-04-05T03:00:00:Z","depth":0,"parameterNumber":3,"parameterNumberName":"V-component_of_WINDS"},"data":[0,0,0,0,0,0,0,0,0,0,0,0,0,0,0,0,0,0,0,0,0,0,0,0,0,0,0,0,0,0,0,0,0,0,0,0,0,0,0,0,0,0,0,0,0,0,0,0,0,0,0,0,0,0,0,0,0,0,-0.4921,-0.4921,0,-0.4941,-0.4942,-0.4942,-0.4931,-0.4931,-0.493,-0.493,-0.4952,-0.4953,-0.4954,0,0,0,0,0,0,0,0,0,0,0,0,0,-0.4874,-0.4875,-0.4921,-0.4921,-0.4922,-0.4941,-0.4942,-0.4942,-0.4931,-0.4931,-0.493,-0.4929,-0.4952,-0.4953,-0.4954,0,0,0,0,0,0,0,0,0,0,0,0,0,-0.4894,-0.4875,-0.4921,-0.4919,-0.4919,-0.4941,-0.4942,-0.4942,-0.4931,-0.4931,-0.493,-0.4929,-0.4951,-0.4953,-0.4955,-0.4981,0,0,-0.496,-0.496,0,0,0,0,0,0,0,0,-0.4893,-0.4896,-0.4919,-0.4919,-0.4919,-0.4933,-0.4933,-0.4955,-0.4932,-0.4927,-0.4929,-0.4929,-0.4946,-0.4948,-0.4954,-0.4982,-0.4983,-0.496,-0.4961,-0.4962,-0.4962,0,0,0,0,0,0,0,-0.4892,-0.4895,-0.4929,-0.4919,-0.4919,-0.4917,-0.4919,-0.4937,-0.4941,-0.4927,-0.4926,-0.4929,-0.4946,-0.4953,-0.4955,-0.4984,-0.496,-0.4961,-0.4962,-0.4963,-0.5034,-0.5035,0,0,0,0,0,0,-0.489,-0.4894,-0.4929,-0.493,-0.4904,-0.4918,-0.492,-0.4929,-0.4941,-0.4942,-0.4929,-0.4928,-0.495,-0.4953,-0.4955,-0.4987,-0.4962,-0.4963,-0.4964,-0.5033,-0.5034,-0.5035,0,0,0,0,0,0,-0.4889,-0.4893,-0.4928,-0.4912,-0.4916,-0.492,-0.493,-0.493,-0.4936,-0.4943,-0.4943,-0.4935,-0.495,-0.4953,-0.4975,-0.4988,-0.4964,-0.4965,-0.5032,-0.5033,-0.5034,-0.5051,0,0,0,0,0,0,-0.4888,-0.4893,-0.4904,-0.4912,-0.4917,-0.4947,-0.4931,-0.4931,-0.4939,-0.4938,-0.4948,-0.4949,-0.4949,-0.4972,-0.4976,-0.4989,-0.4967,-0.5031,-0.5032,-0.5034,-0.5049,-0.5052,-0.5055,0,0,0,0,0,-0.4886,-0.4908,-0.4904,-0.4908,-0.493,-0.4947,-0.495,-0.4949,-0.494,-0.495,-0.4954,-0.4949,-0.4985,-0.4974,-0.4979,-0.4993,-0.503,-0.5032,-0.5034,-0.5048,-0.5052,-0.5055,0,0,0,0,0,0,-0.4902,-0.4909,-0.4905,-0.493,-0.4938,-0.4946,-0.4959,-0.4954,-0.4966,-0.4964,-0.4963,-0.4965,-0.4988,-0.4992,-0.498,-0.5019,-0.5006,-0.5009,-0.5015,-0.5019,-0.5022,-0.5021,-0.4968,0,0,0,0,0,-0.4908,-0.4922,-0.4927,-0.4949,-0.4953,-0.4955,-0.4963,-0.4961,-0.497,-0.4974,-0.4979,-0.4988,-0.5001,-0.501,-0.5023,-0.5049,-0.5051,-0.5061,-0.5064,-0.5066,-0.5069,-0.5083,-0.5087,-0.5041,-0.5041,-0.5041,0,0,-0.4922,-0.4927,-0.4936,-0.4952,-0.4958,-0.4972,-0.4958,-0.4974,-0.4984,-0.4976,-0.4997,-0.5001,-0.5011,-0.5034,-0.5045,-0.5039,-0.5082,-0.5069,-0.5071,-0.5073,-0.5085,-0.5089,-0.5093,-0.5043,-0.5042,-0.5042,0,0,-0.4953,-0.4959,-0.4977,-0.4982,-0.4991,-0.4992,-0.4997,-0.5004,-0.5007,-0.5027,-0.502,-0.5033,-0.5056,-0.5063,-0.507,-0.5102,-0.5097,-0.5106,-0.5122,-0.5135,-0.5139,-0.5142,-0.5153,-0.5157,-0.5108,-0.5108,-0.5108,0,-0.4969,-0.4989,-0.4987,-0.5002,-0.5009,-0.5001,-0.5019,-0.5025,-0.5038,-0.5043,-0.5036,-0.5064,-0.507,-0.5095,-0.5103,-0.5108,-0.5113,-0.5105,-0.5139,-0.5142,-0.5145,-0.5155,-0.516,-0.5109,-0.5109,-0.5109,-0.5109,0,-0.5008,-0.5022,-0.5036,-0.5047,-0.5055,-0.5072,-0.5072,-0.5081,-0.5078,-0.508,-0.51,-0.5107,-0.512,-0.5126,-0.5124,-0.515,-0.5146,-0.5139,-0.5126,-0.515,-0.516,-0.5164,-0.5111,-0.5111,-0.511,-0.511,0,0,-0.5052,-0.506,-0.5065,-0.5069,-0.5078,-0.5089,-0.5105,-0.5117,-0.5124,-0.5133,-0.5146,-0.5165,-0.5158,-0.5166,-0.5164,-0.5175,-0.5199,-0.5167,-0.5167,-0.5173,-0.5228,-0.5234,-0.5239,-0.5196,-0.5197,-0.5197,-0.5227,0,-0.5083,-0.5111,-0.5108,-0.5135,-0.5147,-0.5139,-0.5153,-0.5159,-0.5161,-0.5172,-0.5174,-0.5187,-0.5176,-0.5181,-0.5191,-0.5194,-0.5211,-0.5192,-0.5209,-0.5209,-0.5207,-0.5244,-0.525,-0.5278,-0.5231,-0.5232,-0.5232,0,-0.5125,-0.5134,-0.5161,-0.5166,-0.5171,-0.5184,-0.5194,-0.5205,-0.5211,-0.5212,-0.5219,-0.5215,-0.5231,-0.5217,-0.5239,-0.5226,-0.5233,-0.5235,-0.5236,-0.5238,-0.5223,-0.5247,-0.5287,-0.5292,-0.5239,-0.5238,-0.5238,0,-0.5154,-0.5172,-0.5191,-0.5195,-0.5201,-0.521,-0.5213,-0.5219,-0.5226,-0.5235,-0.524,-0.5251,-0.5257,-0.5265,-0.5264,-0.5254,-0.5286,-0.5273,-0.5287,-0.5287,-0.5295,-0.5295,-0.5337,-0.5299,-0.5299,-0.5299,-0.5298,0,-0.519,-0.5207,-0.5204,-0.5215,-0.5234,-0.523,-0.5248,-0.525,-0.5255,-0.5267,-0.526,-0.5271,-0.5269,-0.528,-0.5279,-0.5297,-0.53,-0.5301,-0.5301,-0.5302,-0.5302,-0.5307,-0.5305,-0.53,-0.5299,-0.5299,-0.5299,0,-0.5226,-0.5224,-0.5244,-0.5247,-0.5249,-0.5262,-0.5265,-0.5276,-0.5276,-0.5291,-0.5294,-0.5295,-0.5307,-0.5306,-0.5321,-0.532,-0.5343,-0.534,-0.534,-0.534,-0.5354,-0.5353,-0.5402,-0.5408,-0.5365,-0.5365,-0.5366,0,-0.5249,-0.5262,-0.5266,-0.5273,-0.5277,-0.5288,-0.5294,-0.5291,-0.5298,-0.5306,-0.5315,-0.5327,-0.5336,-0.5356,-0.5358,-0.5369,-0.5367,-0.5383,-0.5369,-0.5369,-0.5367,-0.5366,-0.5368,-0.5386,-0.5387,-0.5387,-0.5387,0,-0.5291,-0.5289,-0.5299,-0.5307,-0.5315,-0.5322,-0.5329,-0.5335,-0.5332,-0.534,-0.5352,-0.5359,-0.5373,-0.5384,-0.5394,-0.5398,-0.5392,-0.5392,-0.5396,-0.5397,-0.5397,-0.5397,-0.5348,-0.5391,-0.5391,-0.539,-0.539,-0.539,-0.5321,-0.5332,-0.5336,-0.5347,-0.535,-0.5356,-0.5366,-0.5367,-0.5376,-0.5387,-0.5384,-0.5398,-0.5403,-0.5415,-0.542,-0.543,-0.5425,-0.543,-0.5432,-0.5433,-0.5435,-0.5394,-0.5432,-0.5432,-0.5432,-0.5432,-0.5432,0,-0.5363,-0.5364,-0.5374,-0.5382,-0.539,-0.5383,-0.5389,-0.5397,-0.5408,-0.5413,-0.5422,-0.5435,-0.5446,-0.5448,-0.5458,-0.5466,-0.5464,-0.5469,-0.5469,-0.547,-0.544,-0.5435,-0.5471,-0.5471,-0.5471,-0.5471,-0.5471,-0.5471,-0.5385,-0.5402,-0.54,-0.5419,-0.5421,-0.5433,-0.5437,-0.5442,-0.5446,-0.5461,-0.547,-0.547,-0.5474,-0.5484,-0.5494,-0.5494,-0.5498,-0.5504,-0.5504,-0.5476,-0.5472,-0.5468,-0.5464,-0.5505,-0.5505,-0.5533,-0.5533,-0.5533]}]]